TimeEDT,TemperatureF,Dew PointF,Humidity,Sea Level PressureIn,VisibilityMPH,Wind Direction,Wind SpeedMPH,Gust SpeedMPH,PrecipitationIn,Events,Conditions,WindDirDegrees,DateUTC
12:53 AM,39.9,32.0,73,30.40,10.0,Calm,Calm,-,N/A,,Clear,0,2013-04-26 04:53:00
1:53 AM,42.1,33.1,70,30.40,10.0,Calm,Calm,-,N/A,,Clear,0,2013-04-26 05:53:00
2:53 AM,42.1,33.1,70,30.39,10.0,Calm,Calm,-,N/A,,Clear,0,2013-04-26 06:53:00
3:53 AM,41.0,33.1,73,30.40,10.0,Calm,Calm,-,N/A,,Clear,0,2013-04-26 07:53:00
4:53 AM,39.0,33.1,79,30.42,10.0,Calm,Calm,-,N/A,,Clear,0,2013-04-26 08:53:00
5:53 AM,39.0,33.1,79,30.43,10.0,Calm,Calm,-,N/A,,Clear,0,2013-04-26 09:53:00
6:53 AM,42.1,32.0,67,30.44,10.0,Calm,Calm,-,N/A,,Clear,0,2013-04-26 10:53:00
7:53 AM,45.0,30.9,58,30.44,10.0,ESE,3.5,-,N/A,,Clear,110,2013-04-26 11:53:00
8:53 AM,48.9,30.9,50,30.43,10.0,ESE,4.6,-,N/A,,Clear,110,2013-04-26 12:53:00
9:53 AM,54.0,30.9,41,30.44,10.0,East,4.6,-,N/A,,Clear,90,2013-04-26 13:53:00
10:53 AM,57.0,30.9,37,30.44,10.0,ENE,6.9,-,N/A,,Clear,60,2013-04-26 14:53:00
11:53 AM,59.0,30.0,33,30.45,10.0,Variable,5.8,-,N/A,,Clear,0,2013-04-26 15:53:00
12:53 PM,60.1,28.0,30,30.45,10.0,ENE,5.8,-,N/A,,Clear,70,2013-04-26 16:53:00
1:53 PM,60.1,28.9,31,30.43,10.0,SE,6.9,-,N/A,,Clear,140,2013-04-26 17:53:00
2:53 PM,62.1,33.1,34,30.40,10.0,SSE,4.6,-,N/A,,Clear,160,2013-04-26 18:53:00
3:53 PM,63.0,30.9,30,30.38,10.0,SE,4.6,-,N/A,,Clear,130,2013-04-26 19:53:00
4:53 PM,62.1,28.9,29,30.39,10.0,Calm,Calm,-,N/A,,Clear,0,2013-04-26 20:53:00
5:53 PM,62.1,33.1,34,30.38,10.0,South,6.9,-,N/A,,Partly Cloudy,180,2013-04-26 21:53:00
6:53 PM,62.1,34.0,35,30.36,10.0,SSE,4.6,-,N/A,,Partly Cloudy,150,2013-04-26 22:53:00
7:53 PM,61.0,34.0,36,30.36,10.0,SSE,3.5,-,N/A,,Overcast,160,2013-04-26 23:53:00
8:53 PM,59.0,35.1,41,30.35,10.0,SSE,3.5,-,N/A,,Overcast,150,2013-04-27 00:53:00
9:53 PM,57.0,37.0,47,30.35,10.0,Calm,Calm,-,N/A,,Partly Cloudy,0,2013-04-27 01:53:00
10:53 PM,55.9,37.0,49,30.33,10.0,Calm,Calm,-,N/A,,Clear,0,2013-04-27 02:53:00
11:53 PM,55.9,37.0,49,30.35,10.0,Calm,Calm,-,N/A,,Scattered Clouds,0,2013-04-27 03:53:00